Flag for Brazil Weather past 2 weeks in Boa Vista, Roraima, Brazil

Now
88 °F

Scattered showers. Scattered clouds.


Feels Like: 90 °F
Forecast: 74 / 90 °F
Wind: 12 mph from Northeast

Location: Boa Vista Aeropor-To

Current Time: Dec 18, 2014 at 2:25:39 PM

Latest Report: Dec 18, 2014 at 2:00 PM


Visibility: N/A

Pressure: N/A

Humidity: 49%

Dew point: 66 °F

Location of Boa VistaLocation

Historic Weather in Boa Vista — Graph

°F

Boa Vista temperature yesterday

Maximum temperature yesterday: 90 °F (at 2:00 PM)
Minimum temperature yesterday: 72 °F (at 5:00 AM)
Average temperature yesterday: 81 °F

Past Weeks' High & Low Weather Summary

 TemperatureHumidityPressure
High91 °F (Dec 4, 2:00 PM)100% (Dec 13, 9:00 AM)29.98 "Hg (Dec 13, 9:00 AM)
Low68 °F (Dec 13, 9:00 AM)14% (Dec 16, 2:00 PM)29.68 "Hg (Dec 3, 4:00 PM)
Average80 °F70%29.83 "Hg
* Reported Dec 3 1:00 PM — Dec 18 1:00 PM, Boa Vista, Weather by CustomWeather, © 2014

Note: Actual official high and low records may vary slightly from our data, if they occured in-between our weather recording intervals... More about our weather records

Advertising

Boa Vista weather history for previous 24 hours

 ConditionsComfort  
Time TempWeatherWind HumidityBarometerVisibility
1:00 PM
Dec 18
90 °FScattered clouds.14 mph46%29.83 "HgN/A
12:00 PM88 °FScattered clouds.14 mph49%29.86 "HgN/A
11:00 AM84 °FScattered clouds.14 mph58%29.92 "HgN/A
10:00 AM84 °FScattered clouds.13 mph58%29.92 "HgN/A
9:00 AM81 °FPassing clouds.15 mph66%29.92 "HgN/A
8:00 AM79 °FPartly sunny.14 mph74%29.89 "HgN/A
7:00 AM75 °FScattered showers. Scattered clouds.7 mph83%29.89 "HgN/A
6:00 AM73 °FPartly sunny.9 mph89%29.86 "HgN/A
5:00 AM73 °FPassing clouds.8 mph89%29.86 "HgN/A
4:00 AM73 °FPassing clouds.5 mph89%29.83 "HgN/A
3:00 AM77 °FLight rain. Passing clouds.7 mph79%29.83 "HgN/A
2:00 AM77 °FPassing clouds.12 mph79%29.83 "HgN/A
1:00 AM77 °FClear.8 mph74%29.86 "Hg10 mi
12:00 AM79 °FClear.8 mph70%29.86 "Hg10 mi
11:00 PM
Dec 17
79 °FClear.6 mph70%29.86 "Hg10 mi
10:00 PM81 °FClear.7 mph66%29.86 "Hg10 mi
9:00 PM81 °FClear.8 mph70%29.83 "Hg10 mi
8:00 PM82 °FClear.6 mph66%29.80 "Hg10 mi
7:00 PM84 °FClear.3 mph62%29.77 "Hg10 mi
6:00 PM86 °FPassing clouds.6 mph55%29.77 "HgN/A
5:00 PM88 °FScattered clouds.9 mph49%29.77 "HgN/A
4:00 PM90 °FScattered clouds.10 mph49%29.77 "HgN/A
3:00 PM90 °FScattered clouds.10 mph49%29.80 "HgN/A
2:00 PM90 °FScattered showers. Partly sunny.12 mph49%29.83 "HgN/A
Weather by CustomWeather, © 2014

See weather overviewHow to use our weather pages